Вернуться в каталог

FENGYUN 1C DEB

АктивенSSO
NORAD 31014·DEBRIS·🇨🇳 China

Запущен May 10, 1999 с Taiyuan Satellite Launch Center

Loading…

Ближайшие Пролёты (ближайшие 24 часа)

TLE

СвежийSource: Space-Track

Эпоха: Sep 14, 2026, 10:00 UTC

1 31014U 99025BDG 26257.41703595 -.00000256  00000-0 -14406-3 0  9993
2 31014  98.9013 229.5070 0088596 151.0432   1.1107 13.98583369996894

Отслеживайте FENGYUN 1C DEB в реальном времени с AllMySat

Download on the App Store